www.pogodaiklimat.ru

Погода и климат >> Архив погоды >> Россия >> Ставропольский край >> Рощино


ПОГОДА в Рощино

  • Прогноз погоды в Рощино
  • Монитор погоды в Рощино

АРХИВ ПОГОДЫ в Рощино

Время (UTC), дата Ветер
(напр.,м/с)
 
Видим.   Явления Облачность Т
(С)
Тd
(С)
f
(%)
Тe
(С)
Тes
(С)
Комфортность P
(гПа)
Po
(гПа)
Тmin
(С)
Tmax
(С)
R
(мм)
R24
(мм)
S
(см)
00 13.08 С 1 10 км 6/4 600 м
[Sc Ac cast]
+17.5 +9.1 58 +19 +19 1017.3 1006.2
03 13.08 З 1 10 км 8/4 600 м
[Sc Ac cast Ci fib]
+17.3 +9.7 61 +18 +19 1018.3 1007.2 +16.1
06 13.08 СВ 1 10 км ясно +24.7 +5.6 29 +24 +36 комфорт 1019.1 1008.2
09 13.08 С 1 10 км ясно +28.6 +4.4 21 +27 +46 жарко 1017.7 1007.0
12 13.08 СВ 2 10 км ясно +30.6 +4.0 19 +29 +38 жарко 1016.4 1005.7
15 13.08 СВ 1 10 км ясно +29.4 +2.5 18 +27 +28 жарко 1015.6 1004.9 +31.0
18 13.08 штиль 0 10 км ясно +20.9 +5.3 36 +21 +21 комфорт 1017.1 1006.1
21 13.08 В 1 10 км ясно +16.4 +7.4 55 +17 +17 1017.2 1006.0
00 14.08 В 1 10 км ясно +17.7 +3.5 39 +19 +19 1017.0 1005.9
03 14.08 В 1 10 км ясно +16.5 +6.7 52 +17 +18 1017.5 1006.3 +14.1
06 14.08 В 3 10 км ясно +26.6 +5.4 26 +26 +34 жарко 1017.3 1006.5
09 14.08 В 3 10 км ясно +30.0 +3.2 18 +28 +42 жарко 1015.6 1004.9
12 14.08 В 3 10 км ясно +31.4 -1.4 12 +28 +36 жарко 1014.1 1003.5
15 14.08 В 3 10 км ясно +29.3 -0.1 15 +27 +27 жарко 1013.6 1002.9 +31.4
18 14.08 В 2 10 км ясно +22.4 +3.4 29 +22 +22 комфорт 1015.0 1004.0
21 14.08 В 1 10 км ясно +17.4 +7.8 53 +18 +18 1014.7 1003.6
00 15.08 В 1 10 км ясно +15.8 +10.8 72 +17 +17 1013.7 1002.5
03 15.08 В 1 10 км ясно +15.7 +11.9 78 +16 +17 1013.4 1002.3 +14.1
06 15.08 В 5 10 км ясно +25.0 +12.9 47 +27 +32 жарко 1012.9 1002.1
09 15.08 В 5
{12}
10 км ясно +30.4 +8.8 26 +30 +38 жарко 1011.9 1001.3
12 15.08 В 0 10 км ясно +31.0 +3.9 18 +29 +41 жарко 1010.6 1000.0
15 15.08 В 4
{15}
10 км ясно +27.9 +5.7 24 +27 +27 жарко 1010.5 999.8 +31.4
18 15.08 В 2
{11}
10 км ясно +21.7 +7.0 39 +23 +23 комфорт 1011.5 1000.6
21 15.08 В 3 10 км 10/4 600 м
[Sc Ac und]
+20.7 +16.0 74 +24 +24 комфорт 1010.5 999.6
00 16.08 В 4 10 км 10/10 600 м
[Sc]
+21.3 +18.4 84 +26 +26 душно 1009.6 998.7
03 16.08 В 3 4000 м дымка 10/0
[Ac As]
+20.7 +18.1 85 +25 +25 комфорт 1009.5 998.6 +20.0
06 16.08 В 3 10 км 10/0
[Ac As]
+23.1 +18.8 77 +29 +32 очень
душно
1009.7 998.9
09 16.08 В 3 10 км 10/0
[Ac As]
+26.3 +19.5 66 +32 +36 очень
душно
1008.5 997.8
12 16.08 ЮВ 2 10 км 1/0
[Ac trans]
+32.8 +17.2 39 +36 +45 очень
душно
1005.7 995.3
15 16.08 В 5
{10}
10 км ясно +29.3 +15.9 44 +32 +33 душно 1005.4 994.8 +32.8
18 16.08 В 3 10 км 8/0
[Ac cast]
+24.1 +16.3 62 +28 +28 душно 1007.6 996.9
21 16.08 В 2 10 км 9/4 600 м
[Sc Ac As]
+21.6 +16.6 73 +25 +25 комфорт 1006.9 996.1
00 17.08 В 1 10 км 10/4 600 м
[Sc Ac As]
+20.9 +17.4 80 +26 +26 душно 1006.7 995.9
03 17.08 В 1 10 км 10/8 600 м
[Sc Ac As]
+20.7 +17.7 83 +26 +26 душно 1006.2 995.4 +20.5
06 17.08 З 1 10 км слаб. ливневой дождь 10/10
[Cb cap]
+22.3 +19.1 82 +28 +28 душно 1008.6 997.8
09 17.08 штиль 0 10 км {ливн. осадки} 6/4 1000 м
[Sc Ac trans]
+27.9 +19.4 60 +34 +44 очень
душно
1008.4 997.8
12 17.08 СВ 2 10 км {ливн. осадки} 4/1 1000 м
[Sc Ac trans]
+32.1 +17.7 42 +36 +43 очень
душно
1008.5 997.1
15 17.08 СЗ 1 10 км 3/0
[Ac trans]
+31.3 +16.5 41 +34 +35 душно 1007.0 996.5 +32.7
18 17.08 штиль 0 10 км гроза без осадков 10/10 600 м
[Cb cap]
+26.7 +15.6 51 +30 +30 душно 1010.2 999.5
21 17.08 штиль 0 10 км {гроза, ливн. осадки} 10/10 600 м
[Cb cap]
+22.3 +19.4 84 +28 +28 душно 1009.7 998.9
00 18.08 СВ 1 10 км {гроза, ливн. осадки} 10/10 600 м
[Cb cap]
+22.6 +20.5 88 +29 +29 очень
душно
1008.4 997.6
03 18.08 В 2 4000 м дымка 9/6 600 м
[Cb cap Ac trans Ci fib]
+20.8 +18.5 87 +26 +26 душно 1008.0 997.2 +20.6 0.8
06 18.08 В 3 10 км 1/0
[Ci fib]
+27.2 +18.0 57 +32 +39 очень
душно
1007.5 996.9
09 18.08 В 3 10 км 8/0
[Ac As Ci fib]
+30.4 +12.6 34 +31 +39 жарко 1006.7 996.1
12 18.08 ЮЗ 1 10 км 8/0
[Ac As Ci]
+34.3 +12.3 26 +34 +40 очень
жарко
1005.6 995.2
15 18.08 штиль 0 10 км 6/1 600 м
[Sc Ac As Ci]
+32.3 +14.0 33 +34 +34 душно 1006.5 996.1 +36.2
18 18.08 В 2 10 км 6/3 600 м
[Sc Ac As Ci]
+28.3 +11.5 35 +29 +29 жарко 1008.8 998.1
21 18.08 штиль 0 10 км 6/0
[Ac As Ci fib]
+23.9 +14.7 56 +27 +27 жарко 1009.2 998.4
00 19.08 ЮЗ 1 10 км 10/6 600 м
[Sc Ac und]
+25.5 +19.1 68 +31 +31 очень
душно
1010.1 999.3
03 19.08 ЮЗ 1 10 км 8/6 600 м
[Cb cap Ac cast Ci fib]
+24.3 +17.6 66 +28 +29 душно 1011.6 1000.8 +23.5
06 19.08 ЮЗ 2 10 км гроза без осадков 9/4 600 м
[Cb cap Ac cast Ci fib]
+25.8 +15.2 52 +29 +32 душно 1013.1 1002.3
09 19.08 В 1 10 км {гроза} 3/0
[Ac trans Ci fib]
+33.1 +15.4 35 +35 +52 опасность
солнечного
удара
1012.8 1002.3
12 19.08 ЮВ 1 10 км {гроза} 3/0
[Ac trans Ci fib]
+36.2 +14.5 27 +37 +47 очень
жарко
1012.2 1001.9
15 19.08 штиль 0 10 км 4/0
[Ac trans Ci fib]
+34.3 +15.3 32 +36 +37 душно 1012.6 1002.2 +36.8
18 19.08 В 2 10 км 3/0
[Ci fib]
+28.3 +14.6 43 +31 +31 душно 1014.5 1003.8
21 19.08 ЮВ 1 10 км ясно +24.7 +15.7 57 +28 +28 душно 1014.6 1003.8

 

Местоположение метеостанции Рощино (Ставропольский край, Россия): широта 44.15 долгота 45.20 высота над уровнем моря 94 м.

В архиве по умолчанию представлена погода в Рощино за последнюю неделю. Архивные данные за месяц целиком и за предыдущие месяцы, начиная с января 2011 года, Вы можете получить, выбрав интересующий диапазон дат из раскрывающегося списка и нажав кнопку "Ввод!".


*Определитесь, кто Вы:
робот инопланетянин человек

Внимание! Время в таблицах - всемирное. Для получения местного времени необходимо прибавить поправку, которая равна 3 ч.

Смотрите также архив погоды в соседних городах и на ближайших метеорологических станциях:

Погода в Терекли-Мектебе (Дагестан, Россия) (54 км)
Погода в Наурской (Чечня, Россия) (56 км)
Погода в Моздоке (Северная Осетия, Россия) (63 км)
Погода в Южно-Сухокумске (Дагестан, Россия) (66 км)
Погода в Прохладный (Кабардино-Балкария, Россия) (102 км)
Погода в Грозном (Чечня, Россия) (108 км)
Погода в Зеленокумске (Ставропольский край, Россия) (110 км)
Погода в Буденновске (Ставропольский край, Россия) (110 км)
Погода в Кочубее (Дагестан, Россия) (111 км)
Погода в Назрани (Ингушетия, Россия) (115 км)

Пояснения к столбцам:

Ветер - указаны скорость ветра в м/с - средняя за 10 мин, порывы в срок и между сроками (в фигурных скобках) и направление, откуда дует ветер: С - северный, СВ - северо-восточный, В - восточный, ЮВ - юго-восточный, Ю - южный, ЮЗ - юго-западный, З - западный, СЗ - северо-западный.
Видимость - горизонтальная дальность видимости в метрах или километрах. При видимости от 1 до 10 км при отсутствии осадков обычно наблюдается дымка, при ухудшении видимости до 1 км и менее - туман. В сухую погоду видимость может ухудшаться дымом, пылью или мглою.
Явления - указаны атмосферные явления, наблюдавшиеся в срок или в последний час перед сроком; фигурными скобками обозначены явления, наблюдавшиеся между сроками (за 1-3 часа до срока); квадратными скобками обозначены град или гололедные отложения с указанием их диаметра в мм.
Облачность - указаны через наклонную черту общая и нижняя облачность в баллах и высота нижней границы облаков в метрах; квадратными скобками обозначены формы облаков: Ci - перистые, Cs - перисто-слоистые, Cc - перисто-кучевые, Ac - высококучевые, As - высокослоистые, Sc - слоисто-кучевые, Ns - слоисто-дождевые, Cu - кучевые, Cb - кучево-дождевые. Подробнее классификацию облаков см. в Атласе облаков (PDF).
T - Температура воздуха - температура, измеренная на высоте 2 м над землей.
Td - Температура точки росы - температура, при понижении до которой содержащийся в воздухе водяной пар достигнет насыщения.
f - Относительная влажность воздуха - влажноcть воздуха, измеренная на высоте 2 м над землей.
Te - Эффективная температура - температура, которую ощущает одетый по сезону человек в тени. Характеристика душности погоды. При расчете учитывается влияние влажности воздуха и скорости ветра на теплоощущения человека.
Tes - Эффективная температура на солнце - температура, которую ощущает человек, с поправкой на солнечный нагрев. Характеристика знойности погоды. Зависит от высоты солнца над горизонтом, облачности и скорости ветра. Ночью, в пасмурную погоду, а также при ветре 12 м/с и более поправка равна нулю.
P - Атмосферное давление - приведенное к уровню моря атмосферное давление.
Po - Атмосферное давление - измеренное на уровне метеостанции атмосферное давление.
Tmin - Минимальная температура - минимум температуры воздуха на высоте 2 м над землей.
Tmax - Максимальная температура - максимум температуры воздуха на высоте 2 м над землей.
R - Количество осадков - Количество выпавших осадков за период времени, мм. При наведении курсора мыши на число - период времени, за который выпало указанное количество осадков.
R24 - Количество осадков - Количество выпавших осадков за 24 часа, мм.
S - Снежный покров - Высота снежного покрова, см. При наведении курсора мыши на число - состояние снежного покрова и степень покрытия местности в баллах.